Year,Month,Day,Hour,Minute,Value (Times are PST for windspeed in km/hr)
2015,06,11,00,00,12.20
2015,06,11,00,01,11.40
2015,06,11,00,02,9.60
2015,06,11,00,03,8.00
2015,06,11,00,04,11.60
2015,06,11,00,05,9.60
2015,06,11,00,06,15.70
2015,06,11,00,07,9.90
2015,06,11,00,08,8.10
2015,06,11,00,09,7.90
2015,06,11,00,10,16.60
2015,06,11,00,11,11.90
2015,06,11,00,12,13.60
2015,06,11,00,13,11.50
2015,06,11,00,14,10.20
2015,06,11,00,15,6.70
2015,06,11,00,16,7.50
2015,06,11,00,17,8.30
2015,06,11,00,18,8.30
2015,06,11,00,19,6.30
2015,06,11,00,20,13.10
2015,06,11,00,21,6.30
2015,06,11,00,22,10.50
2015,06,11,00,23,9.60
2015,06,11,00,24,9.20
2015,06,11,00,25,6.20
2015,06,11,00,26,7.80
2015,06,11,00,27,9.00
2015,06,11,00,28,6.30
2015,06,11,00,29,6.80
2015,06,11,00,30,9.00
2015,06,11,00,31,11.60
2015,06,11,00,32,8.10
2015,06,11,00,33,9.50
2015,06,11,00,34,7.20
2015,06,11,00,35,7.20
2015,06,11,00,36,8.30
2015,06,11,00,37,6.10
2015,06,11,00,38,6.60
2015,06,11,00,39,6.10
2015,06,11,00,40,8.90
2015,06,11,00,41,9.10
2015,06,11,00,42,9.00
2015,06,11,00,43,7.00
2015,06,11,00,44,10.80
2015,06,11,00,45,9.70
2015,06,11,00,46,8.70
2015,06,11,00,47,5.60
2015,06,11,00,48,7.70
2015,06,11,00,49,5.30
2015,06,11,00,50,7.40
2015,06,11,00,51,5.60
2015,06,11,00,52,4.70
2015,06,11,00,53,8.10
2015,06,11,00,54,9.40
2015,06,11,00,55,7.00
2015,06,11,00,56,6.20
2015,06,11,00,57,6.50
2015,06,11,00,58,6.60
2015,06,11,00,59,6.70
2015,06,11,01,00,6.90
2015,06,11,01,01,8.10
2015,06,11,01,02,7.40
2015,06,11,01,03,4.40
2015,06,11,01,04,11.90
2015,06,11,01,05,10.00
2015,06,11,01,06,10.00
2015,06,11,01,07,12.10
2015,06,11,01,08,6.70
2015,06,11,01,09,9.40
2015,06,11,01,10,9.90
2015,06,11,01,11,11.20
2015,06,11,01,12,9.00
2015,06,11,01,13,11.20
2015,06,11,01,14,9.70
2015,06,11,01,15,10.30
2015,06,11,01,16,15.10
2015,06,11,01,17,15.80
2015,06,11,01,18,12.60
2015,06,11,01,19,9.00
2015,06,11,01,20,11.10
2015,06,11,01,21,10.90
2015,06,11,01,22,9.40
2015,06,11,01,23,9.40
2015,06,11,01,24,13.10
2015,06,11,01,25,11.80
2015,06,11,01,26,8.80
2015,06,11,01,27,12.70
2015,06,11,01,28,11.00
2015,06,11,01,29,7.70
2015,06,11,01,30,10.00
2015,06,11,01,31,7.60
2015,06,11,01,32,11.50
2015,06,11,01,33,9.90
2015,06,11,01,34,7.70
2015,06,11,01,35,8.70
2015,06,11,01,36,9.80
2015,06,11,01,37,8.00
2015,06,11,01,38,7.40
2015,06,11,01,39,9.00
2015,06,11,01,40,10.20
2015,06,11,01,41,9.70
2015,06,11,01,42,6.20
2015,06,11,01,43,5.60
2015,06,11,01,44,5.50
2015,06,11,01,45,5.60
2015,06,11,01,46,8.60
2015,06,11,01,47,8.70
2015,06,11,01,48,7.30
2015,06,11,01,49,4.80
2015,06,11,01,50,5.70
2015,06,11,01,51,10.40
2015,06,11,01,52,9.10
2015,06,11,01,53,10.30
2015,06,11,01,54,8.20
2015,06,11,01,55,9.80
2015,06,11,01,56,7.40
2015,06,11,01,57,11.20
2015,06,11,01,58,4.80
2015,06,11,01,59,5.10
2015,06,11,02,00,6.70
2015,06,11,02,01,7.50
2015,06,11,02,02,10.60
2015,06,11,02,03,9.00
2015,06,11,02,04,9.20
2015,06,11,02,05,8.90
2015,06,11,02,06,6.10
2015,06,11,02,07,9.60
2015,06,11,02,08,8.30
2015,06,11,02,09,4.60
2015,06,11,02,10,6.20
2015,06,11,02,11,4.40
2015,06,11,02,12,6.40
2015,06,11,02,13,5.20
2015,06,11,02,14,6.00
2015,06,11,02,15,6.40
2015,06,11,02,16,6.20
2015,06,11,02,17,6.70
2015,06,11,02,18,3.60
2015,06,11,02,19,4.50
2015,06,11,02,20,6.50
2015,06,11,02,21,6.30
2015,06,11,02,22,4.40
2015,06,11,02,23,4.70
2015,06,11,02,24,3.70
2015,06,11,02,25,3.60
2015,06,11,02,26,6.60
2015,06,11,02,27,3.90
2015,06,11,02,28,4.90
2015,06,11,02,29,2.90
2015,06,11,02,30,3.00
2015,06,11,02,31,2.90
2015,06,11,02,32,5.50
2015,06,11,02,33,3.40
2015,06,11,02,34,4.30
2015,06,11,02,35,5.00
2015,06,11,02,36,6.70
2015,06,11,02,37,5.10
2015,06,11,02,38,5.60
2015,06,11,02,39,5.30
2015,06,11,02,40,4.10
2015,06,11,02,41,6.40
2015,06,11,02,42,1.60
2015,06,11,02,43,2.90
2015,06,11,02,44,2.00
2015,06,11,02,45,6.10
2015,06,11,02,46,4.70
2015,06,11,02,47,4.70
2015,06,11,02,48,2.80
2015,06,11,02,49,1.50
2015,06,11,02,50,1.20
2015,06,11,02,51,3.40
2015,06,11,02,52,2.10
2015,06,11,02,53,1.50
2015,06,11,02,54,1.80
2015,06,11,02,55,3.70
2015,06,11,02,56,2.50
2015,06,11,02,57,2.10
2015,06,11,02,58,0.10
2015,06,11,02,59,2.60
2015,06,11,03,00,3.40
2015,06,11,03,01,2.80
2015,06,11,03,02,0.70
2015,06,11,03,03,1.20
2015,06,11,03,04,2.10
2015,06,11,03,05,0.00
2015,06,11,03,06,0.00
2015,06,11,03,07,0.80
2015,06,11,03,08,0.90
2015,06,11,03,09,0.20
2015,06,11,03,10,0.50
2015,06,11,03,11,0.20
2015,06,11,03,12,0.00
2015,06,11,03,13,0.00
2015,06,11,03,14,0.00
2015,06,11,03,15,0.00
2015,06,11,03,16,0.00
2015,06,11,03,17,0.00
2015,06,11,03,18,0.00
2015,06,11,03,19,0.20
2015,06,11,03,20,2.40
2015,06,11,03,21,3.70
2015,06,11,03,22,3.40
2015,06,11,03,23,3.10
2015,06,11,03,24,2.40
2015,06,11,03,25,0.70
2015,06,11,03,26,0.20
2015,06,11,03,27,0.00
2015,06,11,03,28,0.00
2015,06,11,03,29,0.00
2015,06,11,03,30,0.00
2015,06,11,03,31,0.20
2015,06,11,03,32,0.00
2015,06,11,03,33,0.00
2015,06,11,03,34,0.00
2015,06,11,03,35,0.00
2015,06,11,03,36,0.00
2015,06,11,03,37,0.00
2015,06,11,03,38,0.00
2015,06,11,03,39,0.10
2015,06,11,03,40,3.70
2015,06,11,03,41,2.40
2015,06,11,03,42,2.40
2015,06,11,03,43,5.60
2015,06,11,03,44,4.70
2015,06,11,03,45,3.80
2015,06,11,03,46,4.20
2015,06,11,03,47,6.80
2015,06,11,03,48,5.40
2015,06,11,03,49,3.40
2015,06,11,03,50,3.60
2015,06,11,03,51,1.80
2015,06,11,03,52,1.80
2015,06,11,03,53,1.50
2015,06,11,03,54,3.80
2015,06,11,03,55,3.40
2015,06,11,03,56,2.70
2015,06,11,03,57,2.50
2015,06,11,03,58,0.80
2015,06,11,03,59,1.30
2015,06,11,04,00,0.50
2015,06,11,04,01,1.90
2015,06,11,04,02,3.30
2015,06,11,04,03,3.10
2015,06,11,04,04,2.10
2015,06,11,04,05,1.70
2015,06,11,04,06,3.80
2015,06,11,04,07,4.10
2015,06,11,04,08,5.10
2015,06,11,04,09,7.00
2015,06,11,04,10,5.70
2015,06,11,04,11,5.80
2015,06,11,04,12,3.70
2015,06,11,04,13,7.80
2015,06,11,04,14,4.40
2015,06,11,04,15,4.40
2015,06,11,04,16,5.90
2015,06,11,04,17,4.80
2015,06,11,04,18,6.00
2015,06,11,04,19,3.70
2015,06,11,04,20,2.90
2015,06,11,04,21,1.80
2015,06,11,04,22,1.70
2015,06,11,04,23,2.60
2015,06,11,04,24,4.50
2015,06,11,04,25,4.10
2015,06,11,04,26,2.20
2015,06,11,04,27,2.30
2015,06,11,04,28,2.90
2015,06,11,04,29,3.60
2015,06,11,04,30,3.40
2015,06,11,04,31,4.40
2015,06,11,04,32,5.70
2015,06,11,04,33,4.90
2015,06,11,04,34,4.10
2015,06,11,04,35,4.00
2015,06,11,04,36,4.10
2015,06,11,04,37,3.70
2015,06,11,04,38,2.00
2015,06,11,04,39,3.50
2015,06,11,04,40,2.80
2015,06,11,04,41,1.90
2015,06,11,04,42,2.90
2015,06,11,04,43,3.50
2015,06,11,04,44,1.50
2015,06,11,04,45,3.40
2015,06,11,04,46,2.50
2015,06,11,04,47,4.90
2015,06,11,04,48,4.00
2015,06,11,04,49,3.40
2015,06,11,04,50,3.10
2015,06,11,04,51,2.10
2015,06,11,04,52,0.50
2015,06,11,04,53,2.70
2015,06,11,04,54,2.50
2015,06,11,04,55,1.20
2015,06,11,04,56,2.80
2015,06,11,04,57,2.50
2015,06,11,04,58,2.90
2015,06,11,04,59,1.90
2015,06,11,05,00,1.00
2015,06,11,05,01,0.90
2015,06,11,05,02,0.00
2015,06,11,05,03,1.10
2015,06,11,05,04,0.00
2015,06,11,05,05,0.00
2015,06,11,05,06,0.00
2015,06,11,05,07,1.80
2015,06,11,05,08,1.80
2015,06,11,05,09,1.90
2015,06,11,05,10,1.00
2015,06,11,05,11,1.70
2015,06,11,05,12,0.10
2015,06,11,05,13,1.20
2015,06,11,05,14,0.50
2015,06,11,05,15,0.10
2015,06,11,05,16,0.90
2015,06,11,05,17,1.80
2015,06,11,05,18,1.50
2015,06,11,05,19,0.10
2015,06,11,05,20,0.50
2015,06,11,05,21,2.60
2015,06,11,05,22,0.70
2015,06,11,05,23,1.70
2015,06,11,05,24,0.10
2015,06,11,05,25,0.00
2015,06,11,05,26,0.00
2015,06,11,05,27,0.10
2015,06,11,05,28,0.10
2015,06,11,05,29,0.00
2015,06,11,05,30,0.30
2015,06,11,05,31,0.30
2015,06,11,05,32,0.00
2015,06,11,05,33,0.40
2015,06,11,05,34,0.20
2015,06,11,05,35,0.40
2015,06,11,05,36,0.20
2015,06,11,05,37,0.00
2015,06,11,05,38,0.00
2015,06,11,05,39,0.10
2015,06,11,05,40,0.00
2015,06,11,05,41,0.20
2015,06,11,05,42,0.00
2015,06,11,05,43,0.00
2015,06,11,05,44,0.00
2015,06,11,05,45,0.10
2015,06,11,05,46,0.00
2015,06,11,05,47,0.00
2015,06,11,05,48,0.00
2015,06,11,05,49,0.00
2015,06,11,05,50,0.00
2015,06,11,05,51,0.00
2015,06,11,05,52,0.00
2015,06,11,05,53,0.10
2015,06,11,05,54,0.00
2015,06,11,05,55,0.20
2015,06,11,05,56,0.10
2015,06,11,05,57,1.20
2015,06,11,05,58,1.20
2015,06,11,05,59,0.70
2015,06,11,06,00,0.10
2015,06,11,06,01,0.60
2015,06,11,06,02,0.10
2015,06,11,06,03,0.00
2015,06,11,06,04,0.00
2015,06,11,06,05,0.00
2015,06,11,06,06,0.00
2015,06,11,06,07,0.00
2015,06,11,06,08,0.00
2015,06,11,06,09,0.00
2015,06,11,06,10,0.00
2015,06,11,06,11,0.00
2015,06,11,06,12,0.00
2015,06,11,06,13,0.00
2015,06,11,06,14,0.50
2015,06,11,06,15,0.00
2015,06,11,06,16,0.00
2015,06,11,06,17,0.00
2015,06,11,06,18,0.00
2015,06,11,06,19,0.00
2015,06,11,06,20,0.00
2015,06,11,06,21,0.00
2015,06,11,06,22,0.10
2015,06,11,06,23,0.70
2015,06,11,06,24,0.00
2015,06,11,06,25,0.00
2015,06,11,06,26,0.10
2015,06,11,06,27,0.00
2015,06,11,06,28,0.00
2015,06,11,06,29,0.00
2015,06,11,06,30,0.70
2015,06,11,06,31,2.30
2015,06,11,06,32,3.80
2015,06,11,06,33,3.90
2015,06,11,06,34,2.80
2015,06,11,06,35,0.60
2015,06,11,06,36,0.90
2015,06,11,06,37,0.00
2015,06,11,06,38,0.00
2015,06,11,06,39,0.00
2015,06,11,06,40,0.00
2015,06,11,06,41,0.10
2015,06,11,06,42,2.60
2015,06,11,06,43,2.80
2015,06,11,06,44,2.10
2015,06,11,06,45,0.30
2015,06,11,06,46,0.80
2015,06,11,06,47,1.50
2015,06,11,06,48,0.00
2015,06,11,06,49,0.20
2015,06,11,06,50,1.00
2015,06,11,06,51,1.60
2015,06,11,06,52,2.00
2015,06,11,06,53,1.20
2015,06,11,06,54,0.50
2015,06,11,06,55,3.10
2015,06,11,06,56,3.20
2015,06,11,06,57,3.50
2015,06,11,06,58,3.70
2015,06,11,06,59,1.90
2015,06,11,07,00,2.40
2015,06,11,07,01,4.10
2015,06,11,07,02,2.60
2015,06,11,07,03,2.40
2015,06,11,07,04,0.50
2015,06,11,07,05,1.20
2015,06,11,07,06,2.80
2015,06,11,07,07,2.90
2015,06,11,07,08,4.20
2015,06,11,07,09,2.00
2015,06,11,07,10,5.60
2015,06,11,07,11,5.40
2015,06,11,07,12,4.30
2015,06,11,07,13,4.00
2015,06,11,07,14,3.10
2015,06,11,07,15,4.50
2015,06,11,07,16,3.80
2015,06,11,07,17,3.20
2015,06,11,07,18,4.90
2015,06,11,07,19,4.90
2015,06,11,07,20,4.30
2015,06,11,07,21,4.10
2015,06,11,07,22,3.30
2015,06,11,07,23,3.50
2015,06,11,07,24,4.40
2015,06,11,07,25,3.10
2015,06,11,07,26,0.90
2015,06,11,07,27,3.40
2015,06,11,07,28,2.80
2015,06,11,07,29,2.30
2015,06,11,07,30,1.00
2015,06,11,07,31,5.70
2015,06,11,07,32,4.20
2015,06,11,07,33,2.30
2015,06,11,07,34,2.10
2015,06,11,07,35,4.10
2015,06,11,07,36,2.70
2015,06,11,07,37,2.60
2015,06,11,07,38,1.30
2015,06,11,07,39,5.20
2015,06,11,07,40,2.30
2015,06,11,07,41,2.30
2015,06,11,07,42,2.20
2015,06,11,07,43,2.50
2015,06,11,07,44,3.20
2015,06,11,07,45,0.40
2015,06,11,07,46,1.30
2015,06,11,07,47,2.30
2015,06,11,07,48,2.40
2015,06,11,07,49,2.00
2015,06,11,07,50,1.40
2015,06,11,07,51,4.40
2015,06,11,07,52,3.40
2015,06,11,07,53,3.20
2015,06,11,07,54,5.50
2015,06,11,07,55,5.90
2015,06,11,07,56,4.80
2015,06,11,07,57,4.90
2015,06,11,07,58,6.10
2015,06,11,07,59,3.90
2015,06,11,08,00,5.80
2015,06,11,08,01,4.80
2015,06,11,08,02,5.10
2015,06,11,08,03,3.90
2015,06,11,08,04,4.20
2015,06,11,08,05,4.20
2015,06,11,08,06,3.30
2015,06,11,08,07,5.40
2015,06,11,08,08,5.90
2015,06,11,08,09,5.30
2015,06,11,08,10,2.70
2015,06,11,08,11,2.40
2015,06,11,08,12,4.90
2015,06,11,08,13,7.80
2015,06,11,08,14,6.50
2015,06,11,08,15,5.30
2015,06,11,08,16,4.50
2015,06,11,08,17,3.10
2015,06,11,08,18,5.90
2015,06,11,08,19,5.20
2015,06,11,08,20,7.70
2015,06,11,08,21,7.00
2015,06,11,08,22,6.80
2015,06,11,08,23,6.60
2015,06,11,08,24,5.00
2015,06,11,08,25,4.40
2015,06,11,08,26,6.10
2015,06,11,08,27,6.80
2015,06,11,08,28,5.00
2015,06,11,08,29,4.70
2015,06,11,08,30,6.10
2015,06,11,08,31,3.10
2015,06,11,08,32,5.10
2015,06,11,08,33,5.50
2015,06,11,08,34,2.10
2015,06,11,08,35,4.80
2015,06,11,08,36,7.30
2015,06,11,08,37,3.20
2015,06,11,08,38,0.00
2015,06,11,08,39,4.80
2015,06,11,08,40,3.60
2015,06,11,08,41,6.40
2015,06,11,08,42,4.60
2015,06,11,08,43,3.40
2015,06,11,08,44,3.80
2015,06,11,08,45,4.60
2015,06,11,08,46,2.70
2015,06,11,08,47,2.50
2015,06,11,08,48,3.20
2015,06,11,08,49,4.20
2015,06,11,08,50,4.80
2015,06,11,08,51,5.20
2015,06,11,08,52,4.50
2015,06,11,08,53,4.20
2015,06,11,08,54,1.50
2015,06,11,08,55,4.00
2015,06,11,08,56,7.10
2015,06,11,08,57,5.00
2015,06,11,08,58,6.20
2015,06,11,08,59,6.20
2015,06,11,09,00,4.50
2015,06,11,09,01,7.30
2015,06,11,09,02,7.30
2015,06,11,09,03,7.40
2015,06,11,09,04,9.40
2015,06,11,09,05,7.90
2015,06,11,09,06,9.10
2015,06,11,09,07,8.40
2015,06,11,09,08,8.30
2015,06,11,09,09,11.10
2015,06,11,09,10,9.20
2015,06,11,09,11,6.40
2015,06,11,09,12,10.00
2015,06,11,09,13,5.20
2015,06,11,09,14,12.10
2015,06,11,09,15,10.10
2015,06,11,09,16,10.80
2015,06,11,09,17,10.00
2015,06,11,09,18,10.20
2015,06,11,09,19,7.80
2015,06,11,09,20,8.00
2015,06,11,09,21,8.20
2015,06,11,09,22,7.50
2015,06,11,09,23,6.60
2015,06,11,09,24,8.40
2015,06,11,09,25,8.00
2015,06,11,09,26,10.50
2015,06,11,09,27,8.20
2015,06,11,09,28,8.40
2015,06,11,09,29,11.00
2015,06,11,09,30,13.10
2015,06,11,09,31,9.00
2015,06,11,09,32,7.80
2015,06,11,09,33,10.60
2015,06,11,09,34,14.00
2015,06,11,09,35,9.50
2015,06,11,09,36,11.70
2015,06,11,09,37,8.80
2015,06,11,09,38,8.70
2015,06,11,09,39,9.70
2015,06,11,09,40,10.40
2015,06,11,09,41,11.00
2015,06,11,09,42,11.90
2015,06,11,09,43,13.20
2015,06,11,09,44,10.40
2015,06,11,09,45,13.00
2015,06,11,09,46,14.80
2015,06,11,09,47,10.80
2015,06,11,09,48,7.50
2015,06,11,09,49,10.00
2015,06,11,09,50,11.60
2015,06,11,09,51,12.40
2015,06,11,09,52,17.40
2015,06,11,09,53,13.20
2015,06,11,09,54,12.60
2015,06,11,09,55,11.80
2015,06,11,09,56,15.20
2015,06,11,09,57,15.10
2015,06,11,09,58,14.20
2015,06,11,09,59,12.90
2015,06,11,10,00,12.80
2015,06,11,10,01,12.20
2015,06,11,10,02,10.70
2015,06,11,10,03,14.30
2015,06,11,10,04,11.00
2015,06,11,10,05,12.70
2015,06,11,10,06,12.30
2015,06,11,10,07,14.90
2015,06,11,10,08,13.30
2015,06,11,10,09,10.90
2015,06,11,10,10,12.10
2015,06,11,10,11,12.50
2015,06,11,10,12,9.40
2015,06,11,10,13,10.90
2015,06,11,10,14,13.50
2015,06,11,10,15,9.60
2015,06,11,10,16,12.90
2015,06,11,10,17,11.40
2015,06,11,10,18,11.80
2015,06,11,10,19,10.60
2015,06,11,10,20,9.40
2015,06,11,10,21,13.90
2015,06,11,10,22,11.30
2015,06,11,10,23,9.00
2015,06,11,10,24,13.00
2015,06,11,10,25,11.40
2015,06,11,10,26,11.30
2015,06,11,10,27,10.70
2015,06,11,10,28,13.40
2015,06,11,10,29,12.80
2015,06,11,10,30,11.80
2015,06,11,10,31,14.40
2015,06,11,10,32,10.50
2015,06,11,10,33,10.10
2015,06,11,10,34,13.90
2015,06,11,10,35,14.10
2015,06,11,10,36,16.00
2015,06,11,10,37,12.40
2015,06,11,10,38,14.10
2015,06,11,10,39,12.90
2015,06,11,10,40,11.60
2015,06,11,10,41,10.20
2015,06,11,10,42,12.00
2015,06,11,10,43,17.10
2015,06,11,10,44,11.60
2015,06,11,10,45,12.60
2015,06,11,10,46,10.90
2015,06,11,10,47,14.90
2015,06,11,10,48,14.50
2015,06,11,10,49,11.00
2015,06,11,10,50,9.70
2015,06,11,10,51,13.40
2015,06,11,10,52,10.30
2015,06,11,10,53,11.20
2015,06,11,10,54,10.00
2015,06,11,10,55,8.90
2015,06,11,10,56,10.00
2015,06,11,10,57,12.00
2015,06,11,10,58,10.60
2015,06,11,10,59,12.60
2015,06,11,11,00,8.40
2015,06,11,11,01,11.70
2015,06,11,11,02,13.60
2015,06,11,11,03,14.70
2015,06,11,11,04,13.00
2015,06,11,11,05,15.90
2015,06,11,11,06,12.00
2015,06,11,11,07,7.20
2015,06,11,11,08,13.60
2015,06,11,11,09,24.00
2015,06,11,11,10,15.50
2015,06,11,11,11,20.20
2015,06,11,11,12,13.10
2015,06,11,11,13,14.70
2015,06,11,11,14,14.30
2015,06,11,11,15,13.60
2015,06,11,11,16,14.60
2015,06,11,11,17,13.30
2015,06,11,11,18,19.00
2015,06,11,11,19,20.30
2015,06,11,11,20,19.40
2015,06,11,11,21,13.80
2015,06,11,11,22,15.70
2015,06,11,11,23,23.00
2015,06,11,11,24,21.80
2015,06,11,11,25,17.50
2015,06,11,11,26,16.50
2015,06,11,11,27,18.20
2015,06,11,11,28,21.00
2015,06,11,11,29,20.90
2015,06,11,11,30,23.00
2015,06,11,11,31,16.70
2015,06,11,11,32,17.70
2015,06,11,11,33,16.50
2015,06,11,11,34,21.00
2015,06,11,11,35,20.30
2015,06,11,11,36,13.70
2015,06,11,11,37,18.10
2015,06,11,11,38,15.90
2015,06,11,11,39,15.90
2015,06,11,11,40,12.80
2015,06,11,11,41,17.20
2015,06,11,11,42,15.10
2015,06,11,11,43,16.20
2015,06,11,11,44,20.20
2015,06,11,11,45,13.70
2015,06,11,11,46,14.00
2015,06,11,11,47,10.10
2015,06,11,11,48,14.40
2015,06,11,11,49,15.30
2015,06,11,11,50,16.90
2015,06,11,11,51,13.80
2015,06,11,11,52,14.20
2015,06,11,11,53,16.10
2015,06,11,11,54,17.70
2015,06,11,11,55,14.20
2015,06,11,11,56,15.40
2015,06,11,11,57,9.40
2015,06,11,11,58,14.50
2015,06,11,11,59,12.30
2015,06,11,12,00,19.20
2015,06,11,12,01,14.80
2015,06,11,12,02,15.60
2015,06,11,12,03,17.80
2015,06,11,12,04,13.00
2015,06,11,12,05,16.30
2015,06,11,12,06,15.70
2015,06,11,12,07,16.70
2015,06,11,12,08,19.80
2015,06,11,12,09,20.50
2015,06,11,12,10,18.00
2015,06,11,12,11,16.30
2015,06,11,12,12,15.50
2015,06,11,12,13,17.20
2015,06,11,12,14,17.20
2015,06,11,12,15,20.10
2015,06,11,12,16,16.50
2015,06,11,12,17,22.50
2015,06,11,12,18,18.00
2015,06,11,12,19,14.60
2015,06,11,12,20,21.10
2015,06,11,12,21,17.90
2015,06,11,12,22,17.90
2015,06,11,12,23,15.40
2015,06,11,12,24,21.10
2015,06,11,12,25,13.20
2015,06,11,12,26,18.60
2015,06,11,12,27,16.90
2015,06,11,12,28,21.50
2015,06,11,12,29,19.50
2015,06,11,12,30,17.30
2015,06,11,12,31,17.90
2015,06,11,12,32,17.50
2015,06,11,12,33,19.70
2015,06,11,12,34,13.50
2015,06,11,12,35,16.20
2015,06,11,12,36,15.20
2015,06,11,12,37,17.10
2015,06,11,12,38,19.80
2015,06,11,12,39,16.80
2015,06,11,12,40,19.20
2015,06,11,12,41,18.00
2015,06,11,12,42,14.40
2015,06,11,12,43,15.70
2015,06,11,12,44,18.50
2015,06,11,12,45,14.70
2015,06,11,12,46,19.70
2015,06,11,12,47,12.40
2015,06,11,12,48,17.90
2015,06,11,12,49,24.70
2015,06,11,12,50,20.20
2015,06,11,12,51,15.00
2015,06,11,12,52,13.30
2015,06,11,12,53,11.50
2015,06,11,12,54,13.00
2015,06,11,12,55,16.60
2015,06,11,12,56,17.60
2015,06,11,12,57,16.40
2015,06,11,12,58,11.20
2015,06,11,12,59,11.80
2015,06,11,13,00,16.10
2015,06,11,13,01,11.40
2015,06,11,13,02,14.10
2015,06,11,13,03,21.90
2015,06,11,13,04,18.70
2015,06,11,13,05,16.80
2015,06,11,13,06,10.70
2015,06,11,13,07,13.90
2015,06,11,13,08,15.70
2015,06,11,13,09,20.80
2015,06,11,13,10,18.00
2015,06,11,13,11,16.90
2015,06,11,13,12,18.00
2015,06,11,13,13,17.50
2015,06,11,13,14,15.20
2015,06,11,13,15,10.00
2015,06,11,13,16,13.50
2015,06,11,13,17,14.60
2015,06,11,13,18,13.40
2015,06,11,13,19,11.20
2015,06,11,13,20,13.10
2015,06,11,13,21,14.80
2015,06,11,13,22,19.50
2015,06,11,13,23,15.00
2015,06,11,13,24,14.00
2015,06,11,13,25,16.30
2015,06,11,13,26,23.50
2015,06,11,13,27,21.60
2015,06,11,13,28,14.50
2015,06,11,13,29,14.40
2015,06,11,13,30,24.80
2015,06,11,13,31,15.00
2015,06,11,13,32,16.80
2015,06,11,13,33,10.60
2015,06,11,13,34,15.30
2015,06,11,13,35,11.00
2015,06,11,13,36,9.00
2015,06,11,13,37,9.90
2015,06,11,13,38,11.70
2015,06,11,13,39,12.50
2015,06,11,13,40,9.70
2015,06,11,13,41,12.00
2015,06,11,13,42,12.40
2015,06,11,13,43,20.10
2015,06,11,13,44,12.90
2015,06,11,13,45,14.10
2015,06,11,13,46,13.60
2015,06,11,13,47,12.90
2015,06,11,13,48,11.90
2015,06,11,13,49,12.00
2015,06,11,13,50,14.30
2015,06,11,13,51,17.80
2015,06,11,13,52,17.50
2015,06,11,13,53,20.10
2015,06,11,13,54,17.60
2015,06,11,13,55,19.60
2015,06,11,13,56,16.40
2015,06,11,13,57,21.50
2015,06,11,13,58,19.40
2015,06,11,13,59,23.50
2015,06,11,14,00,23.80
2015,06,11,14,01,24.60
2015,06,11,14,02,20.60
2015,06,11,14,03,21.80
2015,06,11,14,04,23.10
2015,06,11,14,05,25.40
2015,06,11,14,06,25.20
2015,06,11,14,07,20.00
2015,06,11,14,08,21.10
2015,06,11,14,09,14.90
2015,06,11,14,10,18.70
2015,06,11,14,11,19.20
2015,06,11,14,12,29.50
2015,06,11,14,13,21.50
2015,06,11,14,14,25.40
2015,06,11,14,15,23.60
2015,06,11,14,16,17.80
2015,06,11,14,17,19.40
2015,06,11,14,18,23.70
2015,06,11,14,19,21.50
2015,06,11,14,20,26.10
2015,06,11,14,21,15.70
2015,06,11,14,22,14.60
2015,06,11,14,23,21.80
2015,06,11,14,24,15.10
2015,06,11,14,25,17.60
2015,06,11,14,26,10.70
2015,06,11,14,27,22.10
2015,06,11,14,28,15.00
2015,06,11,14,29,15.30
2015,06,11,14,30,14.60
2015,06,11,14,31,16.80
2015,06,11,14,32,19.80
2015,06,11,14,33,30.30
2015,06,11,14,34,27.60
2015,06,11,14,35,24.80
2015,06,11,14,36,17.00
2015,06,11,14,37,20.40
2015,06,11,14,38,22.10
2015,06,11,14,39,20.80
2015,06,11,14,40,17.00
2015,06,11,14,41,28.10
2015,06,11,14,42,27.20
2015,06,11,14,43,29.40
2015,06,11,14,44,27.60
2015,06,11,14,45,24.10
2015,06,11,14,46,26.30
2015,06,11,14,47,23.50
2015,06,11,14,48,24.50
2015,06,11,14,49,15.60
2015,06,11,14,50,19.50
2015,06,11,14,51,13.90
2015,06,11,14,52,21.80
2015,06,11,14,53,14.60
2015,06,11,14,54,17.10
2015,06,11,14,55,24.40
2015,06,11,14,56,18.10
2015,06,11,14,57,30.40
2015,06,11,14,58,20.90
2015,06,11,14,59,20.00
2015,06,11,15,00,15.00
2015,06,11,15,01,16.30
2015,06,11,15,02,19.00
2015,06,11,15,03,20.50
2015,06,11,15,04,26.10
2015,06,11,15,05,25.10
2015,06,11,15,06,22.90
2015,06,11,15,07,18.80
2015,06,11,15,08,19.50
2015,06,11,15,09,9.00
2015,06,11,15,10,14.50
2015,06,11,15,11,16.90
2015,06,11,15,12,13.90
2015,06,11,15,13,10.20
2015,06,11,15,14,12.80
2015,06,11,15,15,14.00
2015,06,11,15,16,13.30
2015,06,11,15,17,19.20
2015,06,11,15,18,15.50
2015,06,11,15,19,13.60
2015,06,11,15,20,21.90
2015,06,11,15,21,17.90
2015,06,11,15,22,20.80
2015,06,11,15,23,21.70
2015,06,11,15,24,22.30
2015,06,11,15,25,23.70
2015,06,11,15,26,22.80
2015,06,11,15,27,13.90
2015,06,11,15,28,20.10
2015,06,11,15,29,18.20
2015,06,11,15,30,19.50
2015,06,11,15,31,27.00
2015,06,11,15,32,20.40
2015,06,11,15,33,20.80
2015,06,11,15,34,17.90
2015,06,11,15,35,18.20
2015,06,11,15,36,23.80
2015,06,11,15,37,22.80
2015,06,11,15,38,19.10
2015,06,11,15,39,23.40
2015,06,11,15,40,20.80
2015,06,11,15,41,33.80
2015,06,11,15,42,24.30
2015,06,11,15,43,32.70
2015,06,11,15,44,18.50
2015,06,11,15,45,23.30
2015,06,11,15,46,24.70
2015,06,11,15,47,21.50
2015,06,11,15,48,16.80
2015,06,11,15,49,23.00
2015,06,11,15,50,26.90
2015,06,11,15,51,19.10
2015,06,11,15,52,21.10
2015,06,11,15,53,14.80
2015,06,11,15,54,16.60
2015,06,11,15,55,17.20
2015,06,11,15,56,21.40
2015,06,11,15,57,23.30
2015,06,11,15,58,22.90
2015,06,11,15,59,12.50
2015,06,11,16,00,9.60
2015,06,11,16,01,17.80
2015,06,11,16,02,21.30
2015,06,11,16,03,18.20
2015,06,11,16,04,11.90
2015,06,11,16,05,8.40
2015,06,11,16,06,14.70
2015,06,11,16,07,11.60
2015,06,11,16,08,15.40
2015,06,11,16,09,11.20
2015,06,11,16,10,17.30
2015,06,11,16,11,7.40
2015,06,11,16,12,11.90
2015,06,11,16,13,11.70
2015,06,11,16,14,8.80
2015,06,11,16,15,8.30
2015,06,11,16,16,13.20
2015,06,11,16,17,9.70
2015,06,11,16,18,11.90
2015,06,11,16,19,20.50
2015,06,11,16,20,17.80
2015,06,11,16,21,20.70
2015,06,11,16,22,17.90
2015,06,11,16,23,16.80
2015,06,11,16,24,22.50
2015,06,11,16,25,16.70
2015,06,11,16,26,15.60
2015,06,11,16,27,18.50
2015,06,11,16,28,21.80
2015,06,11,16,29,21.50
2015,06,11,16,30,19.00
2015,06,11,16,31,22.50
2015,06,11,16,32,22.00
2015,06,11,16,33,24.30
2015,06,11,16,34,17.30
2015,06,11,16,35,22.90
2015,06,11,16,36,25.00
2015,06,11,16,37,23.40
2015,06,11,16,38,20.90
2015,06,11,16,39,17.00
2015,06,11,16,40,18.50
2015,06,11,16,41,20.20
2015,06,11,16,42,21.30
2015,06,11,16,43,19.20
2015,06,11,16,44,11.80
2015,06,11,16,45,9.30
2015,06,11,16,46,13.20
2015,06,11,16,47,11.30
2015,06,11,16,48,11.40
2015,06,11,16,49,13.70
2015,06,11,16,50,12.90
2015,06,11,16,51,10.70
2015,06,11,16,52,14.80
2015,06,11,16,53,10.80
2015,06,11,16,54,12.00
2015,06,11,16,55,15.40
2015,06,11,16,56,12.80
2015,06,11,16,57,12.80
2015,06,11,16,58,11.20
2015,06,11,16,59,14.50
2015,06,11,17,00,11.20
2015,06,11,17,01,13.50
2015,06,11,17,02,14.90
2015,06,11,17,03,17.60
2015,06,11,17,04,13.20
2015,06,11,17,05,13.00
2015,06,11,17,06,17.10
2015,06,11,17,07,15.20
2015,06,11,17,08,18.70
2015,06,11,17,09,13.50
2015,06,11,17,10,20.50
2015,06,11,17,11,13.40
2015,06,11,17,12,18.30
2015,06,11,17,13,14.10
2015,06,11,17,14,21.10
2015,06,11,17,15,11.20
2015,06,11,17,16,17.50
2015,06,11,17,17,11.80
2015,06,11,17,18,13.50
2015,06,11,17,19,14.10
2015,06,11,17,20,22.20
2015,06,11,17,21,17.00
2015,06,11,17,22,18.40
2015,06,11,17,23,19.20
2015,06,11,17,24,14.80
2015,06,11,17,25,15.10
2015,06,11,17,26,16.00
2015,06,11,17,27,14.30
2015,06,11,17,28,11.90
2015,06,11,17,29,14.50
2015,06,11,17,30,14.50
2015,06,11,17,31,14.20
2015,06,11,17,32,13.00
2015,06,11,17,33,11.60
2015,06,11,17,34,16.40
2015,06,11,17,35,13.00
2015,06,11,17,36,13.80
2015,06,11,17,37,10.60
2015,06,11,17,38,13.50
2015,06,11,17,39,20.80
2015,06,11,17,40,14.80
2015,06,11,17,41,12.20
2015,06,11,17,42,14.50
2015,06,11,17,43,15.20